Location: Eppenbrunn
(49.1158°N, 7.5601°E)
Time: 11:34:50
(UTC+00:00)

NOSS 3-4 (C) - Pass Details

Date: 09 April 2020
Orbit: 897 x 1316 km, 63.4° (Epoch: 30 May)

Event Time Altitude Azimuth Distance (km) Brightness Sun altitude
Rises 19:25:05 0° 316° (NW) 3,833 8.1 -11.8°
Reaches altitude 10° 19:27:40 10° 312° (NW) 2,933 7.4 -12.2°
Maximum altitude 19:34:27 53° 238° (WSW) 1,401 4.5 -13.1°
Drops below altitude 10° 19:41:52 10° 164° (SSE) 3,206 5.8 -14.2°
Enters shadow 19:42:40 - 163° (SSE) 3,472 5.9 -14.3°
